Theta_e
298 299 300 301 302 303 304 305 305 305 306 307 307 307 307 307 307 308 308 309 309 309 308 307 307 307 308 308 308 307 307 307 308 308 308 307 307 308 308 308 308 308 307 308 308 308 307 308 308 307 308 309 308 309 310 308 308 310 312 310 310 310 310 309 309 308 308 309 309 308 307 308 310 309 308 308 308 309 310 309 308 307 307 305 305 304 304 304
299 300 301 302 303 304 305 305 305 306 306 307 307 307 307 307 307 308 308 309 310 310 309 309 308 308 308 308 308 308 307 307 308 308 307 307 307 308 308 308 308 308 308 308 308 308 308 308 308 307 307 308 308 309 309 308 309 311 311 309 309 310 308 307 308 307 307 308 308 308 306 306 308 307 307 308 309 309 308 307 305 305 304 303 303 303 303 303
300 301 302 303 304 304 304 305 305 306 306 307 307 307 307 307 308 308 308 309 310 310 310 309 309 309 309 308 309 308 308 308 308 308 307 307 307 307 308 309 308 309 308 308 308 308 308 306 306 307 307 307 307 308 310 309 310 310 310 310 310 310 308 306 306 306 306 306 307 308 306 306 307 305 306 308 309 308 305 304 304 304 302 302 302 302 302 302
301 302 303 304 305 304 304 305 305 306 307 307 307 307 307 307 308 308 308 309 309 310 310 309 309 309 309 308 308 308 308 308 307 307 307 308 307 307 308 309 309 308 308 308 308 307 307 306 306 307 308 308 308 308 309 309 309 310 309 310 309 307 308 306 305 305 304 305 306 306 307 307 306 305 306 306 307 305 303 303 302 302 302 301 301 301 301 301
301 303 304 304 304 305 305 305 306 307 307 307 307 307 307 308 308 308 308 308 309 311 310 309 309 309 308 307 307 307 307 308 307 307 308 307 307 307 307 308 309 308 308 307 307 306 306 306 306 308 309 309 309 309 308 307 308 310 309 308 307 306 309 306 304 304 303 304 305 307 307 307 306 305 305 304 303 303 301 302 302 301 301 300 300 300 300 300
303 304 304 304 305 305 306 306 307 308 308 307 307 307 308 308 307 308 308 309 310 312 312 310 309 309 308 307 307 307 308 308 307 307 307 307 308 307 307 308 309 308 308 308 307 307 307 307 307 309 309 308 309 310 309 307 307 310 310 307 305 306 307 306 304 303 303 304 306 307 305 305 307 304 302 301 301 301 300 301 301 301 299 298 298 298 298 298
303 304 304 305 305 305 306 307 308 308 308 307 307 307 307 307 307 308 308 310 311 312 312 311 309 309 309 308 309 309 309 308 307 306 306 307 307 307 308 308 309 308 308 308 308 308 308 308 308 308 310 309 309 310 309 307 308 311 311 308 306 305 306 304 302 302 302 304 304 303 304 305 307 304 300 300 299 299 299 300 300 299 298 297 296 296 296 297
304 304 305 305 305 306 307 307 307 308 308 307 307 307 307 307 307 308 310 311 311 311 312 310 308 310 310 308 311 310 308 307 306 305 306 307 307 307 308 308 309 309 309 309 308 308 308 308 308 308 311 310 308 310 309 309 310 312 311 308 307 305 305 303 302 303 302 303 303 303 305 305 304 302 300 299 298 298 298 298 298 298 297 296 295 294 295 295
304 305 305 305 305 306 307 307 307 308 308 308 308 308 308 308 308 309 310 310 311 311 312 310 307 309 309 309 312 310 307 307 306 305 306 308 308 308 308 309 309 310 309 308 308 309 308 308 308 307 310 308 307 310 310 311 311 310 310 308 306 304 303 303 304 304 303 302 303 305 305 303 301 302 300 298 297 297 297 296 296 296 295 295 294 294 294 294
304 305 305 305 306 306 307 307 307 308 308 308 308 308 308 308 308 309 310 310 311 311 312 311 308 308 308 310 312 309 306 307 305 305 307 308 308 308 308 309 309 309 309 308 308 309 309 309 307 306 309 309 308 310 309 311 310 308 308 306 304 303 303 304 305 304 303 302 303 304 303 301 300 301 300 297 297 297 296 295 295 295 295 294 294 294 294 294
304 305 305 305 306 307 307 307 307 308 308 308 308 308 308 308 308 309 309 310 311 311 311 311 309 308 308 309 309 307 306 306 305 305 308 307 308 308 308 308 308 309 309 309 308 308 308 307 306 306 309 309 308 309 308 308 308 306 305 306 303 302 303 303 304 304 304 304 303 303 303 301 300 299 298 296 296 296 295 295 295 294 294 294 294 293 294 294
305 305 305 305 306 307 307 308 308 308 308 309 309 309 309 309 308 308 309 311 311 310 311 311 310 309 309 308 307 306 307 306 304 305 307 308 308 308 308 308 308 308 309 310 309 307 307 307 307 307 308 308 308 310 308 305 305 305 305 308 305 304 304 303 303 303 303 304 303 303 304 302 299 297 296 296 296 295 295 295 294 294 294 294 293 293 294 294
304 305 305 306 306 307 308 308 308 309 309 309 309 309 309 309 308 309 310 311 311 310 310 311 309 308 309 309 306 306 306 305 304 306 308 308 307 307 308 308 308 308 309 309 307 306 307 307 308 308 306 307 308 307 305 303 304 306 305 307 306 306 306 303 303 304 303 303 303 304 306 303 298 297 295 295 295 295 295 294 294 294 293 293 293 293 293 293
304 305 305 306 307 307 308 309 309 309 309 309 309 309 309 309 309 309 310 311 311 310 309 310 309 308 310 309 306 306 305 305 304 305 307 308 308 307 307 307 308 308 309 308 307 306 305 305 306 307 306 307 306 305 305 304 305 307 306 306 306 306 306 304 302 304 304 303 303 305 307 303 298 296 295 295 295 295 295 294 294 294 293 293 293 293 293 293
305 305 306 307 307 308 308 309 309 309 309 308 308 309 309 309 309 310 310 311 311 309 309 310 308 309 310 308 306 306 305 305 303 303 305 307 307 308 307 307 308 308 307 307 306 305 305 305 305 306 307 305 305 306 307 306 306 307 307 306 306 306 306 306 302 302 303 303 304 306 306 303 298 296 295 294 294 294 294 294 293 293 293 293 293 293 292 292
305 306 307 307 308 308 309 309 309 309 308 308 307 308 308 309 310 310 310 311 310 308 308 309 308 309 309 307 306 306 305 304 303 302 304 306 305 307 307 307 308 307 306 306 306 305 304 305 304 304 307 306 307 308 307 307 307 307 306 305 306 305 306 306 303 302 303 304 305 305 305 303 299 296 295 294 294 294 294 293 293 293 293 293 293 292 292 292
305 307 307 308 308 309 309 309 310 309 308 308 307 307 307 308 309 310 310 311 310 308 308 308 307 309 309 306 305 305 304 304 303 302 304 306 305 306 307 307 307 306 306 305 305 305 305 305 304 305 307 306 307 308 307 306 305 305 306 306 306 305 305 306 306 304 303 305 305 304 304 301 298 296 295 294 293 293 293 293 293 293 292 292 292 292 292 292
306 307 308 308 308 309 309 309 310 309 308 308 308 309 308 307 307 308 309 309 309 308 308 307 307 309 308 306 305 304 304 303 302 302 303 305 306 305 305 306 306 306 308 307 305 305 305 305 306 306 306 305 306 307 305 304 304 305 306 307 306 306 306 305 306 305 303 305 305 304 303 300 297 296 295 293 293 293 293 292 292 292 292 292 292 292 292 291
307 308 308 308 309 309 309 309 309 309 308 309 309 310 310 308 307 306 306 307 309 308 307 307 308 309 306 305 304 303 304 303 302 302 303 305 305 304 304 304 305 308 310 308 305 305 306 307 307 306 305 305 305 306 305 304 305 306 306 306 306 306 306 305 306 305 302 304 305 304 303 300 297 296 295 293 293 292 292 292 292 292 292 292 291 291 291 291
308 308 308 309 309 308 308 309 309 309 309 309 310 310 311 312 311 308 306 307 307 307 308 308 308 307 306 304 303 303 303 303 302 302 302 304 304 305 305 305 307 308 308 309 307 306 307 308 306 305 304 304 304 304 305 304 305 306 306 306 306 306 306 305 306 304 302 303 304 302 301 299 297 295 294 293 293 292 292 292 291 291 291 291 291 291 291 291
308 308 309 309 309 308 308 309 308 309 310 310 310 311 312 314 312 308 307 306 304 303 307 307 305 305 304 304 302 302 302 303 303 303 302 303 305 305 305 307 309 306 306 308 309 308 308 307 305 305 305 303 303 303 303 304 305 306 306 305 306 305 304 304 305 303 301 302 303 302 300 299 297 295 294 293 293 292 291 291 291 291 291 291 291 291 290 290
308 308 309 309 309 309 308 309 308 308 309 309 310 310 309 309 308 306 308 309 305 302 305 305 303 303 303 303 302 301 302 302 303 303 301 303 305 306 306 308 309 306 307 309 308 307 307 306 306 304 302 302 301 302 303 304 304 305 304 304 304 303 303 304 305 302 301 302 303 303 302 301 297 295 294 293 292 291 291 291 290 290 290 290 290 290 290 290
308 309 309 309 310 309 309 309 309 308 308 308 309 308 308 308 307 306 308 309 305 304 307 307 303 303 303 302 301 301 301 301 303 302 301 303 304 305 306 306 308 308 308 308 306 304 305 304 304 302 300 302 302 302 303 304 304 303 303 303 303 303 302 303 304 303 302 301 302 302 302 302 298 295 295 293 292 292 291 291 291 290 290 290 290 290 290 290
309 309 309 309 309 309 309 309 309 309 308 308 308 308 308 308 307 307 308 309 306 305 306 305 302 303 303 302 301 302 302 301 301 301 300 302 304 304 304 304 306 308 306 308 309 306 305 304 301 299 299 301 302 303 303 304 303 302 301 302 302 302 302 302 303 302 302 301 300 301 303 303 300 297 297 294 292 292 291 291 291 291 291 290 290 290 290 290
308 308 308 309 309 309 309 309 309 308 308 308 308 308 307 308 308 307 309 310 307 306 305 303 303 302 302 301 301 302 303 302 300 300 300 299 302 305 304 302 304 305 306 308 308 305 305 301 299 302 301 300 302 303 302 302 303 302 301 300 301 301 301 302 302 301 302 302 301 301 302 302 301 298 298 295 293 292 291 291 291 291 290 290 290 290 290 290
308 308 308 309 309 309 310 311 309 308 310 309 307 308 307 308 308 307 310 312 307 305 306 306 305 303 303 302 300 302 306 304 300 300 300 299 300 303 304 302 303 304 305 306 304 302 303 300 300 303 303 302 303 302 301 301 303 302 300 300 300 301 301 301 301 300 301 301 301 301 301 301 301 300 299 296 293 293 292 291 291 291 290 290 290 290 290 289
308 308 308 308 309 309 311 311 309 310 314 311 307 308 307 308 309 306 310 314 307 304 306 307 305 303 304 302 300 304 305 304 302 301 300 300 300 302 304 303 303 303 301 302 303 302 303 303 303 304 303 302 302 301 301 300 302 302 300 299 300 301 301 301 300 300 301 301 301 301 301 301 301 301 299 297 295 294 293 292 291 291 290 290 290 290 290 289
308 308 308 308 308 308 309 310 309 310 312 308 306 308 307 309 308 308 314 311 304 305 305 305 305 302 303 302 302 305 304 302 304 302 300 300 300 302 303 303 302 302 299 303 304 302 302 303 303 303 303 301 301 301 300 300 302 302 300 299 300 300 300 300 300 302 302 299 299 301 301 300 299 300 298 296 296 295 293 292 292 291 291 290 290 290 290 289
308 308 308 308 308 308 308 308 308 308 307 306 307 308 308 307 306 312 317 308 302 305 304 304 305 302 303 305 305 305 304 303 303 302 301 301 301 301 301 302 303 302 301 304 304 300 300 301 301 303 302 300 301 301 300 300 301 301 301 301 300 299 299 299 300 301 300 298 298 299 299 298 298 299 299 297 297 295 293 292 292 291 291 290 290 290 290 289
308 308 308 308 308 308 308 308 307 307 306 305 307 308 307 306 309 316 315 305 302 306 305 305 305 301 302 307 308 304 304 304 301 302 303 302 302 302 299 299 302 302 301 304 303 300 298 299 300 303 302 301 301 301 300 300 300 301 301 301 300 299 298 298 298 298 298 298 298 297 297 297 297 299 299 298 295 293 292 292 292 291 291 290 290 290 289 289
307 307 307 307 307 307 307 309 307 306 306 306 306 307 308 310 314 315 309 303 303 305 305 305 302 301 300 301 302 302 303 304 301 302 304 302 302 303 301 300 301 302 303 304 303 302 300 300 301 300 300 300 300 300 300 300 300 301 300 299 299 298 298 298 298 298 297 297 298 297 297 297 298 299 298 295 292 291 292 292 291 291 290 290 290 290 289 289
305 305 305 305 306 306 307 308 306 305 306 305 305 310 315 314 311 306 305 305 303 302 301 302 302 301 299 297 299 299 300 302 301 299 299 299 300 300 300 301 300 302 303 301 301 302 302 300 298 297 298 298 299 300 300 300 301 301 300 298 297 298 298 297 298 298 297 297 298 297 298 298 298 299 296 293 291 291 292 292 291 290 290 290 290 290 290 289
304 303 304 305 306 306 307 307 306 305 306 304 307 316 319 314 306 301 303 305 302 299 299 300 300 298 297 299 300 298 298 299 300 299 298 299 300 299 299 299 298 299 301 300 300 301 301 301 298 298 299 298 298 299 299 299 299 300 299 297 297 297 298 298 297 297 297 297 298 297 298 298 297 297 295 293 292 291 291 291 291 290 290 290 289 289 289 289
304 303 304 304 304 306 307 307 306 305 304 305 314 323 316 308 303 300 302 303 299 298 299 298 299 297 298 300 299 297 299 299 298 300 300 300 301 300 299 300 299 299 300 300 298 298 300 300 299 299 298 298 298 297 298 298 298 299 298 297 297 297 297 298 298 297 298 297 297 298 298 297 297 296 293 292 291 291 291 291 290 290 289 289 288 288 288 288
305 303 303 303 303 304 305 306 306 303 303 307 314 317 310 304 301 299 301 301 298 300 300 296 297 300 301 300 298 296 298 300 298 298 300 300 299 300 299 299 299 298 300 300 297 297 299 299 299 299 297 297 297 296 297 298 297 298 298 297 297 296 297 298 298 298 298 298 297 298 297 297 296 294 291 291 291 291 291 290 289 288 288 287 287 288 288 287
307 304 302 302 302 302 303 305 305 303 305 309 311 308 304 301 299 299 301 300 299 300 300 299 298 301 303 301 300 299 298 299 299 298 298 298 298 298 298 298 297 297 299 300 297 296 299 300 299 299 297 296 296 296 296 296 297 298 298 297 296 296 297 298 297 297 297 297 297 296 296 296 295 294 291 291 292 291 290 289 288 287 287 286 287 287 287 286
307 304 302 301 301 302 302 303 303 304 307 310 310 304 300 299 297 297 298 299 298 296 299 301 299 300 303 301 301 302 300 299 300 300 298 298 298 297 297 297 296 296 297 297 297 296 297 300 299 298 297 297 294 295 296 295 296 297 297 296 295 295 296 296 295 295 295 295 295 295 295 295 294 294 293 292 291 290 289 288 287 286 286 286 286 286 286 286
306 304 304 302 301 302 302 302 302 304 307 310 309 302 298 299 297 296 297 298 297 296 299 301 299 298 300 301 301 301 301 302 301 299 298 298 298 297 297 297 296 296 295 295 298 297 296 299 299 296 297 296 294 295 297 296 296 296 296 295 294 294 295 295 295 295 295 294 295 295 295 294 294 294 294 292 290 289 288 288 286 285 285 285 285 285 285 285
305 309 308 303 301 302 302 302 302 306 309 308 307 302 299 300 298 296 297 297 297 298 300 301 298 298 299 299 300 300 300 301 300 299 299 298 298 297 295 296 297 297 294 294 298 298 295 297 298 297 297 296 295 296 297 296 296 296 296 295 294 294 294 294 294 293 293 294 294 294 294 293 293 294 293 291 289 288 288 287 286 285 285 285 284 284 284 284
304 310 309 301 302 303 302 303 305 308 309 305 302 301 300 300 300 296 294 296 298 298 300 301 299 298 299 298 298 298 299 299 299 299 299 297 297 297 295 294 296 296 294 294 296 296 296 296 296 297 298 296 295 296 296 296 296 296 296 295 294 294 294 293 293 293 293 293 293 294 292 291 292 292 291 290 289 288 287 286 285 285 284 284 284 284 284 284
306 315 308 301 303 302 304 308 306 304 305 302 300 300 300 300 300 298 292 292 298 298 297 299 300 298 299 299 298 298 299 299 298 298 298 297 298 299 295 291 293 293 294 296 297 296 297 297 297 298 296 295 296 294 293 294 295 295 295 295 293 292 293 293 293 293 293 293 293 293 292 291 291 292 290 289 289 288 287 285 284 284 284 284 284 284 284 284
313 317 306 302 303 302 306 311 303 299 302 302 299 300 301 301 299 298 296 294 298 298 296 298 300 298 298 299 299 298 299 299 298 298 297 297 298 298 294 289 290 291 294 297 296 295 296 296 297 297 295 295 294 291 291 292 293 293 293 292 292 291 291 293 293 293 293 293 293 292 291 291 291 291 290 289 288 287 286 285 284 284 283 283 284 284 284 284
311 309 302 302 303 303 307 309 303 300 301 298 296 296 298 299 299 298 298 298 298 298 298 298 298 298 298 298 299 299 298 298 297 297 297 297 297 296 292 289 290 292 294 296 295 294 295 295 296 295 294 295 293 290 291 291 291 293 293 291 291 290 290 292 292 291 292 292 292 291 291 291 290 290 289 288 287 286 285 284 283 283 283 283 284 283 283 284
305 304 304 303 302 305 311 310 307 303 300 297 297 297 296 297 299 299 299 300 299 298 300 299 298 298 298 297 298 299 299 298 296 296 296 297 296 293 289 289 290 293 294 295 295 295 295 295 294 293 293 295 294 293 293 291 292 295 293 290 289 289 290 291 290 289 290 291 290 290 290 290 289 289 288 287 286 285 284 284 283 283 283 283 283 283 283 283
306 307 309 304 300 305 307 303 304 306 302 302 301 298 298 298 297 298 300 299 298 298 300 299 296 297 297 296 297 298 298 297 297 296 295 296 295 292 290 289 289 293 294 293 292 293 295 295 293 292 292 293 294 294 294 294 294 295 293 291 290 289 289 291 291 291 291 291 289 289 290 289 288 288 287 286 285 284 283 283 283 283 283 283 283 283 283 283
313 312 313 309 302 302 300 295 300 306 304 306 304 298 298 300 297 296 298 299 298 297 298 298 295 296 297 298 298 299 297 295 296 297 296 296 294 292 290 289 289 291 293 292 290 291 295 296 293 292 292 292 293 293 293 294 294 294 295 294 292 290 288 289 291 291 290 290 290 290 289 288 287 286 285 285 284 283 283 283 283 282 282 283 283 283 283 283
313 309 306 308 306 306 303 298 300 303 301 304 304 298 299 301 298 297 297 298 298 297 298 297 296 298 299 299 299 299 297 294 295 296 296 295 294 292 289 289 290 290 292 293 290 290 294 295 293 293 293 293 293 293 293 293 293 294 294 293 292 291 288 289 291 290 290 290 290 288 287 286 285 284 284 284 283 283 283 282 282 282 282 282 282 283 283 283
309 304 297 301 306 307 306 301 299 301 301 301 300 298 301 302 300 300 299 297 296 297 298 298 297 298 299 298 298 297 297 295 296 296 295 294 295 295 292 292 292 290 292 293 290 290 292 293 293 294 293 292 292 293 293 293 293 292 291 290 290 290 289 289 290 289 289 289 288 286 285 284 284 284 284 283 283 283 282 282 282 282 282 282 282 282 282 282
303 301 296 297 302 301 299 298 298 301 303 302 301 300 302 303 301 298 297 297 297 296 297 299 299 297 297 298 298 297 297 297 298 298 297 296 296 296 295 294 293 291 292 293 291 289 290 292 295 293 292 291 292 293 292 291 290 290 290 290 290 289 289 289 289 288 287 286 285 284 284 283 283 284 283 283 283 283 282 282 282 282 282 282 282 282 282 282
306 306 301 300 300 297 296 296 299 304 303 302 304 301 299 302 301 298 297 298 299 298 297 299 299 296 297 299 298 296 296 296 297 297 296 297 297 295 294 295 294 294 293 293 292 291 291 293 294 291 291 292 292 291 291 290 289 289 289 290 289 289 288 288 287 286 285 285 284 283 283 284 284 284 283 283 283 282 282 282 282 281 281 281 281 281 282 282
302 301 302 306 303 297 297 297 298 304 304 301 302 301 299 301 300 298 298 296 297 300 298 298 299 296 295 297 297 297 295 295 296 295 293 294 295 293 293 293 293 296 297 294 292 291 291 291 292 290 291 292 291 289 289 288 288 288 289 290 288 287 286 285 285 285 284 284 284 283 283 283 283 283 283 282 282 282 281 281 281 281 281 281 281 281 282 282
299 297 299 309 307 297 296 298 299 304 303 299 300 301 301 301 297 297 300 298 297 299 297 296 298 297 297 297 295 295 294 292 292 292 291 292 292 290 291 291 290 293 297 294 289 288 288 290 291 290 290 291 290 288 288 288 288 289 290 288 286 285 285 284 284 284 283 283 283 283 283 283 283 283 282 282 282 281 281 281 281 281 281 281 281 281 281 281
Wind_Speed
6 7 8 8 8 8 8 8 9 8 8 8 8 8 9 8 8 8 9 10 12 13 12 10 8 8 8 8 8 9 12 19 21 20 16 11 16 18 15 13 15 15 11 10 11 6 3 3 6 5 1 2 2 1 0 2 1 2 2 3 4 2 1 2 3 4 4 6 8 7 5 8 8 5 4 2 3 5 8 8 9 7 9 16 21 25 25 23
7 7 7 7 8 8 8 8 8 8 7 7 7 7 8 7 7 7 8 10 11 12 11 9 6 5 5 5 5 4 5 11 16 18 15 15 19 18 14 14 16 16 12 10 10 7 4 4 5 5 0 1 1 0 1 1 2 2 1 3 3 2 3 5 7 7 5 6 9 7 4 5 7 6 6 7 7 10 14 16 18 17 17 21 23 25 25 25
7 7 7 7 7 7 8 8 8 8 7 7 7 7 7 6 6 7 8 9 10 10 10 9 5 2 3 2 3 5 4 3 10 12 15 19 19 17 16 14 16 17 11 8 7 5 3 3 3 3 1 1 1 1 0 1 2 0 1 4 2 4 4 7 7 6 5 5 8 6 2 3 4 5 6 9 11 15 18 16 17 18 18 18 19 23 25 25
7 7 7 7 7 7 7 7 8 7 7 8 8 8 6 5 6 6 7 8 9 10 11 10 7 2 1 2 4 7 8 2 6 10 15 19 19 18 17 14 15 16 10 6 6 4 2 2 2 3 1 1 2 1 0 3 2 1 1 2 4 3 2 8 6 5 4 4 5 6 3 2 4 4 8 13 11 12 15 14 14 14 15 16 17 20 23 26
7 7 7 7 7 7 7 7 7 7 7 8 9 8 5 6 6 6 7 8 9 10 11 12 10 5 8 7 2 9 8 2 5 12 18 20 19 18 17 15 14 15 10 6 6 3 2 1 0 1 1 1 2 0 1 4 2 1 2 4 4 3 4 7 5 4 5 4 4 4 3 4 4 7 13 16 12 9 11 10 11 11 13 15 15 18 22 26
7 7 7 7 7 7 7 7 6 6 7 8 9 8 7 8 6 6 6 7 9 11 11 13 10 7 14 17 10 7 5 1 7 15 20 19 18 18 16 13 13 14 9 6 6 3 2 2 0 1 1 2 2 2 2 2 2 1 3 5 4 4 5 6 5 4 5 3 5 4 3 3 5 12 14 16 13 9 9 9 10 12 14 15 17 20 23 24
8 7 7 7 7 7 7 6 5 5 6 8 8 8 8 7 5 5 6 7 9 12 13 14 10 5 8 12 16 13 7 4 10 19 22 19 17 16 12 10 11 11 10 9 8 4 3 5 3 1 0 2 2 2 2 1 1 1 3 6 4 3 5 6 4 3 4 4 7 5 2 4 8 12 12 15 14 10 9 9 10 12 14 17 20 22 23 23
7 7 7 7 7 6 6 5 5 5 6 7 7 7 6 5 5 5 6 7 8 12 13 15 13 4 4 3 6 10 9 6 14 23 23 18 14 12 7 7 8 10 13 13 9 3 2 5 4 1 0 3 0 1 1 1 1 2 3 5 3 2 5 5 2 3 4 4 6 4 4 11 9 10 14 16 12 11 10 10 10 11 14 18 21 22 21 22
7 7 7 7 6 6 5 5 5 6 6 5 4 4 4 4 5 4 6 7 8 12 12 15 18 8 4 2 1 5 7 8 16 24 21 15 10 6 4 5 7 8 11 12 10 5 2 2 2 1 2 4 1 1 2 2 2 3 3 4 4 4 6 5 4 6 6 3 8 7 11 14 6 6 13 15 12 10 10 10 10 11 16 19 19 20 20 21
7 7 7 6 6 6 5 5 5 5 5 4 3 2 3 4 4 4 5 7 9 11 10 12 18 18 11 3 3 7 6 9 18 23 17 12 7 4 5 6 7 7 7 9 10 8 3 1 1 0 2 4 1 1 2 3 2 4 3 4 5 5 7 7 6 9 5 1 8 9 12 13 7 5 9 12 13 10 9 12 12 13 17 18 17 17 20 21
7 7 6 6 6 6 5 5 5 5 5 4 3 2 2 3 3 4 5 7 10 10 10 8 10 18 17 9 9 8 7 10 19 22 15 10 8 7 7 7 8 7 6 9 10 8 5 3 2 1 1 1 1 2 3 2 1 2 3 6 4 3 7 10 7 8 5 1 5 4 7 12 11 9 9 11 12 9 9 12 14 15 15 16 17 16 18 20
7 6 6 6 6 5 5 5 5 6 7 6 5 4 3 2 2 3 4 8 11 10 9 8 5 6 8 10 11 6 7 13 21 21 15 10 9 10 10 8 9 9 8 7 8 8 6 3 3 4 3 1 1 2 3 1 0 1 1 4 3 2 4 10 6 6 6 3 5 2 3 9 12 10 10 10 10 8 9 13 14 14 14 14 15 13 14 19
6 6 6 6 5 5 6 6 6 7 7 7 6 5 3 2 2 3 5 6 10 11 7 7 7 4 3 5 7 9 11 16 23 21 16 13 9 9 11 9 9 10 10 10 9 10 10 8 8 6 3 1 2 2 2 1 0 1 1 1 3 2 2 8 4 7 5 3 6 3 4 5 10 10 10 10 10 8 10 14 13 12 12 12 12 12 13 17
6 6 6 6 6 6 7 6 6 7 7 7 6 4 3 2 2 3 4 5 8 11 7 6 7 7 6 4 3 13 15 17 27 25 18 16 11 8 11 10 9 11 11 12 11 11 11 12 10 6 2 3 3 2 2 1 1 1 0 1 3 2 4 6 4 8 6 3 8 7 4 3 7 9 10 9 9 9 11 13 12 12 11 10 11 12 12 15
6 7 6 6 7 7 7 6 5 7 9 11 10 7 3 0 2 2 2 4 8 11 7 6 7 5 5 4 2 15 18 18 28 28 19 16 13 8 8 11 12 12 13 11 9 9 8 9 8 4 2 1 3 2 2 1 2 2 2 3 4 5 6 4 2 7 8 5 10 8 3 3 6 7 9 9 9 9 11 12 12 12 12 11 11 11 11 13
7 7 7 7 7 7 7 7 7 9 12 17 20 18 12 3 2 2 2 2 6 13 11 7 7 4 5 4 7 13 15 16 23 27 18 14 15 9 5 9 10 9 11 11 8 7 8 7 5 2 1 2 1 1 0 2 4 5 5 5 5 5 8 5 2 4 7 6 8 7 1 2 3 5 7 8 9 9 10 11 11 12 11 11 10 10 10 11
7 7 7 8 8 7 6 6 7 9 12 16 18 21 24 18 5 1 2 2 3 8 12 13 8 3 5 7 9 10 12 15 22 28 20 11 14 12 6 5 4 3 3 8 9 5 6 4 2 1 3 7 6 4 3 6 6 5 5 3 2 4 7 7 2 4 8 8 6 6 2 2 2 4 5 7 9 8 9 10 10 10 10 10 10 10 11 12
7 7 8 8 7 6 5 4 4 8 10 10 9 10 18 26 24 17 10 6 4 2 8 16 10 4 4 10 8 10 14 15 20 26 21 10 10 13 11 6 2 3 3 3 8 6 4 1 1 3 8 9 9 7 7 5 5 5 6 4 2 5 6 9 8 5 8 8 5 3 2 3 2 2 3 6 7 8 8 8 8 9 9 10 10 10 11 13
7 8 8 8 8 7 7 6 5 8 7 3 3 3 4 10 20 26 26 19 10 5 4 9 8 3 3 8 9 14 13 10 15 24 22 13 7 8 11 9 3 2 1 2 7 6 3 2 4 8 9 8 7 7 5 2 3 4 5 4 4 6 6 10 10 4 6 8 4 1 0 4 3 1 2 3 4 7 7 7 8 8 8 9 10 10 12 13
8 9 8 8 9 11 12 9 5 5 4 3 4 3 1 1 4 11 18 18 10 6 5 2 4 2 2 5 11 18 10 5 9 22 27 18 7 4 8 7 1 5 5 2 5 4 2 6 8 6 5 5 4 3 2 1 2 3 3 3 6 6 6 11 8 3 4 6 3 2 3 5 4 2 2 2 3 6 8 9 9 9 9 9 11 12 12 12
8 8 8 8 10 14 14 11 7 5 3 1 2 3 1 0 3 4 3 6 5 5 7 3 3 2 3 3 11 17 6 4 5 20 30 19 6 4 7 6 3 7 6 2 1 3 3 9 6 3 3 4 3 1 2 1 2 2 2 3 5 4 7 13 7 3 4 6 3 4 5 6 5 3 2 2 3 6 8 9 10 10 10 9 11 12 12 11
9 8 8 7 8 10 11 11 12 11 10 9 10 8 4 2 6 7 3 5 4 4 4 3 4 4 3 2 10 14 3 2 9 19 31 21 8 5 4 5 8 7 5 1 0 2 7 8 3 3 2 1 0 1 3 3 3 2 2 3 5 6 8 11 3 6 2 5 3 3 4 6 7 6 3 3 3 5 6 7 8 9 10 9 10 11 12 13
8 8 8 6 4 4 6 8 10 12 16 16 13 8 5 5 7 7 3 5 4 2 1 2 4 6 5 2 12 14 4 7 8 16 28 19 7 5 3 6 8 4 6 6 5 6 6 5 3 2 1 2 1 1 3 3 2 1 2 4 5 7 8 6 0 1 4 6 5 3 5 6 8 7 5 4 3 4 3 4 5 7 8 9 10 11 13 15
8 8 7 5 3 3 2 5 7 11 17 17 14 9 6 5 5 5 2 2 2 1 1 1 2 5 6 4 14 12 5 7 3 11 24 16 5 2 2 5 4 4 5 6 6 8 6 3 2 1 2 2 2 3 5 4 2 1 1 5 7 8 8 8 7 9 8 3 4 5 7 6 9 10 7 6 4 3 3 3 5 7 8 9 10 12 13 14
8 7 7 6 4 5 2 3 7 9 12 12 11 8 6 4 2 3 2 1 2 1 0 1 1 6 5 7 16 8 2 4 3 8 16 13 6 2 1 1 2 5 2 3 3 6 5 2 0 1 2 2 2 3 5 5 5 1 1 4 8 11 11 12 11 10 7 1 2 2 7 5 7 12 9 7 6 3 3 4 7 8 9 10 11 12 12 12
7 6 7 7 6 7 2 2 5 5 6 6 5 3 3 2 2 3 2 1 3 2 4 4 3 9 9 9 14 4 2 4 4 8 14 13 7 1 1 1 1 4 1 1 2 2 2 1 2 1 2 2 3 4 2 3 5 4 2 4 8 10 12 13 9 6 6 5 1 2 5 7 3 8 10 9 7 4 3 5 7 8 9 10 10 11 12 12
6 5 8 9 9 8 3 2 4 4 3 2 2 2 1 2 4 4 1 2 4 3 6 6 5 10 11 11 13 3 2 6 5 7 15 15 8 2 1 3 1 3 1 1 1 2 1 1 1 2 3 5 6 6 3 2 5 5 3 4 9 10 11 10 6 4 4 6 3 4 4 8 7 2 8 9 7 4 2 6 7 9 10 11 11 12 12 12
3 4 7 9 9 10 7 3 3 3 2 1 1 2 2 2 4 2 0 3 3 3 2 3 5 8 9 10 12 5 2 6 4 7 15 15 9 2 2 4 1 2 2 2 1 3 2 3 5 5 7 8 7 7 4 3 4 5 6 8 10 9 8 5 4 5 2 3 4 2 2 6 9 3 5 7 6 3 2 7 8 10 11 11 11 11 12 11
2 4 6 8 7 8 8 5 4 3 2 2 3 3 2 3 3 1 2 3 2 2 1 3 5 7 9 7 8 6 2 4 3 7 14 11 11 5 3 4 1 2 3 3 3 2 1 3 3 3 6 7 8 7 2 2 4 8 10 11 8 4 3 3 3 5 2 3 5 2 1 5 10 7 1 4 4 1 2 5 8 10 11 12 12 11 12 11
3 4 6 8 6 5 5 3 3 2 1 2 3 2 2 2 1 1 4 2 2 3 0 3 4 4 8 6 4 5 5 4 2 6 6 3 9 9 4 1 0 3 0 2 4 2 0 1 1 1 3 4 8 6 0 2 6 9 9 10 5 3 3 2 2 3 3 4 5 2 1 5 9 8 2 1 3 4 2 5 9 11 13 14 13 11 12 11
5 6 7 8 6 5 4 1 1 0 1 2 2 2 1 1 2 3 4 1 2 3 2 3 3 3 6 5 3 6 4 3 4 6 6 2 7 13 7 2 2 1 2 3 6 4 1 2 1 0 1 1 4 4 2 3 6 6 6 9 8 2 2 1 1 1 3 7 8 6 3 5 9 5 3 4 6 6 2 6 12 15 16 15 14 13 11 11
8 8 8 8 5 4 2 1 1 1 2 3 2 1 1 2 4 3 1 2 2 3 3 2 3 4 5 2 2 6 4 3 5 5 6 4 6 9 8 6 4 3 5 5 5 5 0 1 2 1 1 1 4 4 1 2 3 5 6 9 9 7 5 5 5 5 5 8 12 12 10 7 9 3 4 6 7 5 2 6 12 16 16 16 18 17 14 11
14 11 8 10 9 5 3 2 2 2 3 2 2 1 3 4 4 1 2 3 2 3 2 2 3 4 4 3 4 5 2 2 5 3 2 1 3 4 6 7 5 3 3 4 4 5 2 2 3 2 0 1 4 6 3 3 6 6 7 9 8 6 6 6 7 7 8 10 15 17 12 8 8 3 3 5 5 4 1 5 10 14 15 17 19 18 13 12
18 17 13 14 14 11 7 3 3 3 3 3 2 3 7 6 1 0 2 2 1 2 2 1 4 4 2 2 3 4 1 1 3 4 3 3 4 5 4 8 10 4 3 3 2 4 4 0 3 5 3 4 5 5 3 5 4 3 4 6 5 4 4 5 6 7 10 12 16 16 7 6 8 3 4 5 3 2 5 8 12 16 18 18 19 18 14 15
15 19 20 19 18 14 10 6 5 4 4 5 5 5 7 3 1 1 1 2 1 3 2 1 3 3 1 1 1 1 1 1 2 3 5 5 5 6 4 6 11 7 2 2 1 3 4 2 2 2 2 5 6 2 2 4 2 1 1 4 6 5 3 5 8 10 11 11 11 9 5 6 6 4 7 4 1 3 7 13 18 21 22 22 21 20 18 18
10 15 22 24 21 16 11 5 2 2 2 5 8 6 3 1 1 2 1 2 1 3 3 1 1 3 2 2 1 2 1 1 2 2 3 4 4 6 4 2 5 6 3 2 1 2 4 2 3 2 0 4 5 3 3 3 3 1 2 5 7 5 4 4 9 11 10 9 8 7 8 10 6 3 5 2 2 8 13 18 22 23 27 26 22 20 19 20
8 8 16 24 24 17 10 6 5 4 3 6 8 5 0 1 1 2 1 1 1 1 3 1 2 3 3 2 3 6 4 1 3 3 2 1 2 5 5 2 2 4 4 2 1 0 3 5 3 2 2 4 2 0 5 5 4 3 3 6 6 3 3 1 5 8 8 8 8 9 13 14 10 4 1 3 8 13 16 21 23 25 27 25 21 21 23 25
6 3 9 21 23 15 8 7 7 5 5 8 7 4 1 1 1 2 1 1 1 1 1 2 2 1 1 1 2 5 6 4 5 4 2 2 2 3 5 3 1 3 4 3 2 1 2 5 1 2 3 3 2 1 3 6 5 3 4 3 4 1 1 2 4 7 9 10 8 10 14 13 8 6 6 8 12 16 19 22 26 28 26 22 22 25 29 29
4 2 4 16 19 12 8 7 6 5 8 6 4 3 1 1 1 0 1 1 0 1 1 1 1 1 1 1 2 2 3 3 4 3 2 3 3 2 3 3 1 4 5 3 2 1 2 3 1 2 2 3 1 2 3 2 3 4 4 2 2 1 3 3 4 5 8 11 10 12 13 9 5 6 7 10 13 19 23 25 26 26 24 23 24 27 28 26
2 1 2 13 15 8 15 20 12 6 7 4 1 2 1 1 2 2 2 2 0 0 1 1 1 1 0 1 1 1 2 1 2 2 2 3 3 2 4 3 3 6 7 2 0 1 2 2 4 4 3 3 1 2 3 3 2 1 2 4 3 2 2 3 3 3 4 9 10 12 13 10 6 4 4 10 16 22 27 27 24 22 24 28 28 26 25 24
2 2 2 15 14 1 11 19 11 4 4 3 2 3 1 1 2 2 2 2 1 0 1 1 1 1 1 0 1 0 1 1 1 1 2 2 3 2 3 3 3 5 5 2 1 2 2 1 5 8 7 5 2 2 1 3 2 3 5 4 2 2 3 5 5 2 1 6 9 12 15 13 5 3 4 14 19 25 29 26 22 23 28 31 28 27 27 26
4 3 5 16 10 8 9 8 3 2 3 2 3 3 1 2 2 2 2 0 1 1 0 0 1 0 0 0 1 1 1 1 1 1 1 2 3 3 3 3 3 3 3 2 0 2 2 2 3 6 7 5 3 5 2 1 3 3 3 2 1 1 2 5 8 7 6 8 9 12 17 13 1 2 11 20 23 27 26 22 22 25 28 28 27 30 31 28
3 3 6 14 5 8 10 6 0 4 4 1 2 2 2 2 1 1 1 0 1 2 1 0 0 0 0 0 0 1 0 1 1 1 1 1 1 2 3 4 4 3 2 1 1 1 1 1 4 6 6 2 5 5 1 1 2 2 3 2 1 1 1 3 6 7 7 11 10 11 15 11 3 7 18 24 27 27 22 23 27 27 25 26 30 32 30 28
1 2 6 15 6 3 4 5 2 2 3 1 2 2 1 1 1 1 0 0 0 1 0 1 0 0 1 0 0 0 1 1 1 1 1 1 1 3 3 4 4 2 1 2 2 3 1 1 4 7 7 5 2 1 2 1 3 3 1 2 2 1 1 4 5 4 6 11 13 12 14 13 12 18 24 26 28 25 22 26 29 26 25 27 29 29 28 28
2 1 2 15 19 10 4 2 3 4 3 2 3 2 1 1 1 1 0 0 0 1 0 1 0 1 1 1 0 1 1 1 0 0 1 0 1 2 3 3 4 2 2 3 4 4 2 1 4 5 5 7 7 6 6 6 6 5 3 1 2 3 2 4 6 7 9 14 15 13 14 20 24 27 27 26 26 24 25 29 29 27 28 29 28 27 27 27
2 3 1 7 14 10 3 2 2 4 4 3 3 1 1 2 1 1 1 0 0 1 1 1 0 0 0 0 0 0 2 3 2 1 1 0 0 1 1 3 2 2 3 4 3 1 0 1 3 3 4 7 9 12 13 12 10 9 9 9 4 3 3 3 5 8 12 15 15 12 16 26 31 29 27 26 24 24 28 31 30 29 30 29 28 28 28 27
1 3 1 1 3 4 3 3 3 2 2 1 2 1 0 1 1 1 1 1 1 1 0 1 1 1 1 2 1 0 2 2 2 1 1 1 1 1 0 1 1 3 5 3 1 1 1 1 2 2 7 11 13 17 17 12 11 12 13 15 10 2 3 3 6 10 14 12 13 17 24 29 30 29 29 26 24 26 30 30 30 30 29 28 28 29 31 31
2 2 1 1 1 1 2 3 2 3 3 2 1 1 1 1 1 0 1 1 1 1 1 1 3 3 1 1 2 2 3 1 1 1 1 1 2 1 1 1 1 4 3 2 3 2 1 1 1 1 8 13 14 15 13 10 11 12 12 14 12 3 3 5 8 12 13 11 15 25 31 30 27 28 29 26 26 29 30 30 30 30 30 30 31 33 33 31
2 3 0 2 2 2 1 1 1 3 4 3 2 1 1 2 1 0 1 1 0 0 0 1 3 4 1 1 1 1 2 1 1 1 2 1 1 1 1 2 0 2 2 2 3 1 1 1 2 1 8 13 12 10 8 9 12 12 8 7 7 5 5 7 10 14 16 16 21 27 31 28 24 23 26 27 28 28 27 27 29 31 32 32 33 34 31 28
1 3 2 2 4 2 1 1 1 1 2 2 2 1 0 1 1 1 1 1 0 1 1 2 3 3 1 0 0 1 1 3 4 3 2 2 0 0 1 1 0 2 3 3 2 1 3 4 3 1 6 9 8 8 10 12 11 9 4 2 6 10 9 8 9 13 15 18 23 28 27 22 18 21 27 29 28 27 28 30 30 31 33 34 34 33 29 26
4 5 5 5 4 2 2 1 1 1 2 2 1 2 2 2 1 1 1 1 1 1 2 1 1 2 1 1 1 0 2 4 4 2 1 1 2 1 1 1 1 1 2 2 1 3 5 3 1 2 4 5 8 14 19 15 4 2 1 4 8 11 12 10 9 11 15 21 27 27 21 17 18 23 29 31 31 31 32 32 31 30 34 36 33 29 28 29
7 5 4 5 4 2 2 1 1 1 2 2 1 1 1 1 2 1 1 1 0 1 2 0 2 2 1 1 1 2 3 2 3 4 3 4 6 5 4 4 4 2 1 1 0 1 2 3 3 3 4 8 12 17 20 14 2 2 1 4 9 13 16 15 14 15 19 19 20 20 18 19 24 28 32 34 34 32 29 28 28 28 32 33 30 27 28 30
Wind_Direction
79 91 92 87 84 78 69 57 51 51 53 52 49 49 45 53 76 75 63 55 49 47 51 64 87 105 116 121 105 85 64 62 61 53 51 24 358 360 357 356 357 351 345 353 3 4 347 355 10 10 165 167 1 23 14 29 20 245 231 260 264 279 320 3 4 20 347 346 360 350 3 343 334 342 325 307 226 279 319 348 2 358 7 2 1 359 353 352
93 95 91 88 85 74 61 51 50 52 52 51 46 41 37 53 81 75 61 53 47 43 43 49 65 96 120 128 131 133 83 59 57 49 32 7 1 1 355 356 358 354 347 352 6 6 353 352 359 357 280 186 355 186 213 15 319 254 211 260 280 14 33 24 18 26 7 339 332 336 12 337 336 337 331 341 343 5 3 360 6 9 15 14 12 9 10 13
100 97 93 89 82 64 53 48 48 47 43 41 33 21 22 51 86 77 60 48 41 34 33 34 40 90 131 141 187 181 176 70 48 30 9 2 1 0 355 354 356 355 349 346 353 351 348 351 347 339 302 135 36 6 181 5 328 344 276 269 8 28 50 41 27 35 15 321 318 325 313 296 359 339 332 348 347 19 20 2 3 11 13 11 14 16 21 26
102 99 94 85 72 56 51 47 46 41 34 29 18 8 17 71 98 79 58 43 33 27 28 25 22 66 105 307 249 192 196 182 40 356 352 358 353 354 353 346 348 353 351 341 342 341 347 352 360 360 299 123 65 28 81 25 351 147 291 334 50 355 28 51 39 33 343 288 304 309 287 316 17 360 7 12 4 22 21 10 14 16 14 14 19 22 27 32
102 99 90 78 62 54 52 49 48 40 33 26 16 17 50 103 107 79 55 38 29 26 27 23 24 65 57 16 254 186 199 205 14 341 346 348 343 347 346 343 345 352 355 351 350 342 2 36 59 43 47 85 76 70 67 41 348 175 77 48 56 347 16 42 27 3 305 274 284 304 357 345 17 48 32 31 33 26 14 16 25 28 27 25 27 28 32 35
100 93 83 69 58 55 55 54 53 44 36 29 26 41 85 112 103 75 52 37 32 23 22 20 24 78 67 54 75 130 169 64 345 335 341 335 334 340 339 343 349 357 4 7 5 358 21 9 24 48 51 78 49 50 63 40 326 273 84 67 51 21 26 21 4 331 288 315 342 344 15 326 66 63 39 41 46 32 22 25 33 42 39 34 35 35 34 34
95 86 74 63 57 57 57 57 52 40 35 36 43 62 93 110 89 65 48 39 31 21 21 21 26 105 99 69 70 74 82 52 345 337 335 325 324 329 336 350 354 12 30 28 16 23 36 19 50 52 38 95 51 59 65 20 353 310 70 61 45 31 24 8 342 296 294 9 1 329 320 360 66 70 46 45 42 32 30 29 42 48 43 42 41 38 36 34
90 80 68 61 59 58 57 51 37 31 31 38 53 70 85 89 67 57 48 39 25 22 26 27 35 88 158 75 66 66 55 8 343 343 335 324 324 324 341 2 6 34 44 40 24 11 40 30 56 232 11 83 88 84 47 318 84 69 57 49 42 34 22 10 324 320 346 23 349 324 60 43 62 84 55 40 28 29 30 31 43 45 45 45 43 40 37 36
86 77 67 62 60 55 52 39 29 27 25 33 51 66 71 60 55 53 44 34 20 23 29 38 43 56 121 97 90 62 25 339 342 347 341 337 342 346 12 18 22 45 47 41 31 21 60 48 54 237 99 97 169 100 2 314 66 64 51 46 59 52 19 12 19 7 2 17 358 16 70 53 56 99 55 32 17 22 26 36 40 38 46 44 42 40 37 37
82 74 67 61 56 51 46 34 25 16 11 23 35 45 47 43 50 47 35 27 22 21 25 44 50 56 77 92 77 62 5 334 349 354 356 1 19 55 49 33 34 51 52 41 33 28 37 48 71 193 94 101 112 68 354 335 67 67 76 84 80 77 46 24 22 10 353 64 17 32 74 57 49 77 47 14 5 13 24 38 38 38 46 44 43 41 37 38
77 71 64 56 54 50 40 29 17 9 19 32 34 30 32 37 40 31 26 24 22 20 26 43 55 60 64 60 66 56 356 348 357 4 17 32 55 60 41 34 40 56 56 46 36 31 46 61 108 150 19 97 101 99 52 9 84 84 132 119 93 97 60 34 20 2 339 106 34 44 88 54 46 54 31 359 356 10 25 38 40 40 44 42 43 42 39 38
72 68 59 55 55 46 33 25 21 32 44 45 43 37 24 27 28 28 28 28 27 24 29 35 38 59 55 54 62 39 1 1 1 13 30 38 45 37 36 43 52 61 56 61 44 38 71 74 76 64 360 248 139 102 87 19 36 61 169 124 94 162 66 34 18 343 328 356 11 233 172 41 39 38 18 359 359 10 28 40 39 38 40 39 40 41 40 38
70 62 57 58 52 43 36 33 40 48 46 41 39 37 35 42 48 46 34 27 29 28 33 31 39 64 35 59 65 20 13 5 6 21 33 33 37 33 43 51 61 65 63 80 65 54 80 61 52 70 22 4 91 99 152 75 41 81 8 64 85 176 66 42 10 324 318 303 340 292 218 45 47 35 16 4 4 14 34 41 36 36 37 35 37 39 41 38
66 57 57 57 50 48 40 39 49 49 47 42 32 28 46 60 53 43 27 25 15 14 30 36 52 78 52 87 87 9 8 9 13 20 22 30 43 46 49 55 69 72 69 80 74 69 81 61 60 98 63 43 91 160 182 83 37 145 241 341 46 23 20 54 32 351 0 308 333 323 264 65 57 27 17 9 8 23 39 40 35 35 34 33 36 35 39 38
60 58 62 58 55 48 38 48 63 65 66 61 54 43 37 101 38 2 344 11 11 16 42 46 43 79 69 88 36 356 3 13 15 13 11 24 32 33 49 66 80 76 66 71 76 71 68 60 58 64 41 75 144 152 178 126 59 41 12 354 17 3 351 30 98 22 16 332 342 341 281 93 75 35 20 12 13 30 41 40 35 34 33 32 34 34 36 36
63 65 66 63 59 53 55 70 77 80 82 75 68 58 51 55 242 272 360 342 14 35 51 37 16 52 75 36 342 350 4 8 7 9 13 25 26 20 48 77 84 82 67 55 60 61 46 59 70 25 19 73 46 320 174 73 39 37 28 357 348 343 340 349 130 59 10 335 357 14 16 140 94 51 25 17 21 32 42 42 35 33 31 31 31 32 32 29
71 75 73 72 64 58 62 66 74 94 100 88 75 61 56 56 58 230 352 8 40 44 45 27 8 92 73 12 349 351 350 351 360 8 14 23 27 33 59 88 71 59 63 42 38 30 19 39 162 203 53 45 16 340 36 34 5 9 16 349 310 314 321 333 9 49 8 347 359 29 75 159 110 55 30 23 25 31 42 39 35 34 31 30 30 27 26 23
78 80 77 73 59 48 42 44 93 124 123 103 79 62 58 59 64 68 63 69 69 33 34 19 11 126 51 6 353 329 322 338 359 8 12 15 26 39 48 59 24 309 261 47 33 5 344 354 203 46 38 29 19 20 44 29 329 330 341 331 314 314 313 322 333 17 13 344 332 20 99 149 128 66 41 27 24 34 42 38 35 35 32 31 29 24 23 20
79 82 78 68 54 50 54 70 123 149 155 138 47 14 38 61 64 60 54 59 61 43 45 4 4 101 11 344 329 323 314 321 359 9 10 7 6 24 33 34 31 1 356 60 25 357 327 33 33 35 28 12 15 28 38 2 297 303 308 305 296 304 304 299 307 13 15 324 294 355 200 168 142 92 57 34 33 41 43 44 39 34 32 30 27 24 21 19
86 85 77 67 63 63 66 81 123 161 195 245 284 317 359 113 56 48 39 48 61 52 75 5 357 74 360 333 330 342 337 291 6 16 8 2 341 347 15 2 342 60 43 7 13 351 331 54 48 32 12 352 359 360 348 317 272 273 265 275 276 277 291 293 296 71 34 320 271 161 175 173 155 128 82 54 50 47 41 41 36 31 31 25 24 22 18 17
92 86 77 72 75 71 69 74 76 76 64 73 88 56 105 183 65 95 25 48 59 38 73 62 12 36 332 314 337 349 343 256 10 16 9 6 333 337 360 342 34 56 27 291 304 316 33 58 47 351 334 328 349 322 270 230 223 254 255 277 288 291 298 296 294 122 67 345 286 179 184 193 173 156 117 93 62 49 39 36 35 28 28 24 23 20 14 14
96 87 78 77 83 76 67 61 58 67 70 77 84 80 101 120 103 128 150 98 65 13 76 67 46 42 312 266 352 343 302 330 5 9 7 5 6 17 354 11 56 50 359 328 296 30 59 55 12 337 353 270 332 218 245 230 200 231 267 287 308 332 314 292 255 142 109 332 287 193 221 221 177 164 149 109 79 62 45 38 37 26 24 21 16 14 8 8
100 88 78 72 80 63 52 50 49 61 66 71 80 88 109 104 119 135 117 101 89 356 62 44 54 29 358 61 357 342 20 32 358 358 359 359 22 41 8 31 56 49 10 23 45 65 64 42 17 17 237 230 233 311 298 261 197 212 320 340 323 338 332 300 150 99 297 294 270 258 268 235 179 177 177 143 107 76 59 42 42 27 24 18 11 12 8 6
103 90 74 57 47 9 12 50 45 57 64 71 80 85 112 114 131 136 99 112 96 77 75 53 111 32 18 7 347 346 63 48 350 350 357 3 19 348 27 37 37 52 32 13 50 80 79 55 46 174 223 274 285 345 354 334 353 181 270 350 323 320 316 285 295 313 303 259 236 273 280 246 186 191 189 164 159 109 69 42 42 30 22 16 12 13 9 7
107 91 68 45 21 354 341 57 43 60 67 68 76 81 97 102 179 171 135 130 44 40 82 105 126 27 7 337 350 349 143 53 42 357 356 9 9 310 81 41 347 41 24 309 49 81 75 92 232 240 228 291 298 16 15 331 335 341 181 334 310 309 303 287 301 314 310 299 165 267 298 292 181 188 190 167 167 153 93 45 33 25 19 14 9 7 5 3
112 91 56 36 13 359 360 73 36 58 72 57 64 90 80 48 167 166 164 96 47 360 352 4 353 6 360 342 345 317 174 26 7 5 8 12 4 236 87 359 19 47 307 280 60 84 58 153 193 305 263 305 358 28 29 294 325 353 19 318 295 298 293 293 316 318 313 332 275 193 286 296 235 191 185 168 164 157 100 44 27 18 12 7 3 360 358 358
121 75 38 29 20 19 52 102 33 48 79 48 37 83 74 54 126 148 222 45 47 350 349 355 336 355 359 348 340 314 110 343 312 19 14 4 353 247 30 19 59 51 26 240 71 72 350 309 61 358 334 9 10 6 3 300 322 344 11 319 295 292 287 297 320 280 295 324 271 184 234 280 293 242 164 166 176 171 61 24 18 10 3 359 357 353 353 355
129 38 23 20 20 35 58 72 54 70 85 82 81 93 104 107 131 169 169 70 20 338 7 349 339 357 351 346 1 48 114 317 332 10 351 355 6 319 41 39 63 52 11 272 72 72 318 357 26 353 359 16 360 352 346 293 305 330 335 308 290 288 288 291 291 272 279 321 297 166 177 283 299 323 131 160 195 204 19 14 4 357 354 350 348 346 348 347
66 13 13 10 11 33 43 46 73 99 91 93 107 97 105 117 154 223 68 99 329 343 108 336 348 357 341 338 18 47 8 347 40 339 334 359 14 11 73 40 71 122 355 345 64 69 308 26 22 327 13 7 334 339 341 244 303 318 308 289 269 230 248 257 268 286 249 254 308 7 73 309 302 300 193 174 205 215 19 6 356 352 349 345 343 338 338 336
51 17 6 1 358 1 359 24 71 93 90 104 118 96 94 115 153 71 52 62 331 348 139 2 358 322 336 351 25 24 7 15 360 321 338 2 357 18 88 251 215 152 215 52 67 48 190 90 71 323 29 350 317 328 171 227 286 297 301 301 290 192 214 219 208 280 287 287 324 358 329 315 299 294 318 125 124 105 54 355 352 351 348 345 343 333 327 326
38 15 357 353 347 330 327 10 65 232 138 111 127 99 71 55 63 80 66 30 324 347 355 20 3 323 3 21 12 358 1 358 341 349 11 4 358 19 37 343 327 44 27 39 29 15 177 144 100 209 344 313 290 291 184 219 269 291 328 340 346 329 280 284 229 300 327 315 322 331 331 296 281 295 68 115 128 123 69 360 351 346 342 339 337 329 322 321
37 16 0 360 355 337 341 176 223 196 140 105 112 106 98 52 42 60 27 314 320 2 16 5 341 352 359 347 341 346 340 353 8 21 16 12 26 30 40 30 337 326 27 25 350 349 165 137 49 181 195 300 301 302 175 180 321 349 1 4 2 354 350 340 330 335 316 300 308 325 338 300 279 322 91 144 157 150 51 1 346 337 332 331 334 329 322 322
43 29 18 23 26 27 49 148 175 145 132 106 94 68 75 73 53 44 286 324 6 7 352 279 299 321 313 310 7 352 317 350 2 25 24 346 47 63 79 50 2 302 3 4 335 349 32 128 33 22 165 291 337 354 10 349 0 14 14 15 15 3 346 321 324 328 305 297 304 316 329 305 294 334 113 144 151 172 282 330 332 332 329 330 332 327 321 326
40 34 37 38 36 39 48 89 125 114 116 109 83 48 64 71 69 215 293 324 2 321 294 273 304 310 318 13 7 331 287 66 8 12 13 10 35 33 46 33 18 351 308 341 8 354 343 349 34 22 346 338 9 28 360 321 349 33 30 28 26 1 330 298 310 315 300 300 302 305 310 299 312 357 118 119 125 230 292 321 333 339 338 334 333 332 332 331
32 34 39 38 33 34 43 67 102 100 99 91 68 54 69 80 236 202 311 295 287 303 287 194 306 313 38 27 13 331 282 46 33 35 29 34 45 20 356 2 7 0 320 340 25 336 314 286 39 29 308 349 16 31 304 301 336 77 41 29 10 341 294 267 284 290 290 294 295 291 276 287 315 80 105 109 171 308 330 338 341 342 342 340 337 336 333 327
24 32 33 30 24 21 25 35 86 118 116 84 71 58 69 117 232 176 198 280 275 306 303 307 340 353 6 319 9 42 240 252 1 24 54 58 58 26 4 336 359 359 351 360 17 341 320 307 19 20 43 49 39 24 18 348 321 330 355 356 343 308 253 268 288 289 290 284 281 290 291 296 313 83 110 119 343 350 347 343 341 342 343 340 334 330 325 321
18 37 33 24 16 14 25 51 86 125 117 73 78 79 104 184 214 205 187 337 23 307 309 13 26 355 343 309 349 353 325 301 348 351 38 58 60 20 354 338 39 6 345 326 202 55 307 299 341 12 1 46 79 57 70 54 325 326 16 342 321 264 188 204 296 296 297 283 279 295 295 300 313 320 57 40 359 353 348 343 343 344 342 335 327 325 320 318
0 66 40 18 12 15 34 66 80 100 90 65 78 109 173 192 210 224 160 68 38 307 332 45 28 334 298 311 352 338 328 345 351 352 36 18 27 26 349 340 90 41 2 308 294 71 266 286 301 127 333 359 152 243 62 66 29 60 92 344 326 299 243 308 312 301 301 295 290 295 294 296 309 318 343 360 354 346 341 340 340 339 336 329 324 322 318 317
360 94 31 6 9 23 50 76 74 66 76 72 84 121 164 206 147 70 38 44 194 271 19 55 350 345 175 315 346 331 338 5 349 346 42 2 3 69 31 345 291 6 6 316 312 22 230 284 333 150 299 319 75 340 325 31 50 105 126 78 35 337 280 304 321 298 299 300 301 309 303 293 311 334 347 351 348 344 340 339 337 333 329 325 322 319 318 321
20 87 22 357 1 38 68 70 67 46 64 82 135 111 112 188 116 71 15 354 253 262 15 167 226 338 21 292 339 348 360 12 336 358 37 359 347 90 71 28 313 331 340 314 324 332 237 255 303 299 310 304 339 35 348 340 1 14 10 16 19 342 272 268 262 236 287 301 305 313 303 292 319 5 5 350 347 343 339 337 335 331 326 322 319 319 321 323
47 99 351 344 343 14 68 58 53 29 65 86 96 91 74 114 108 91 60 348 308 282 335 190 170 3 329 7 78 241 321 3 4 19 41 19 9 40 72 52 332 321 322 294 127 353 316 241 295 313 327 327 357 73 336 314 355 9 357 357 1 355 338 313 294 237 235 289 295 300 294 297 326 92 359 347 346 338 334 334 332 326 322 320 319 320 323 323
50 95 330 341 10 101 77 53 34 25 79 73 55 83 57 51 100 108 108 14 281 242 255 163 102 29 245 9 77 207 284 13 42 30 39 50 27 9 41 38 324 302 309 304 32 360 316 261 284 300 302 314 66 98 74 44 91 86 56 40 132 126 355 324 306 303 297 287 287 288 287 292 331 69 339 340 338 332 333 335 330 323 320 319 320 322 324 325
53 106 355 352 34 107 69 68 337 22 66 76 31 72 29 42 113 149 156 215 251 225 232 157 182 293 165 239 235 191 84 17 11 26 74 127 90 26 24 4 321 283 279 322 19 351 313 295 310 304 293 277 126 128 87 77 117 105 95 101 150 170 291 272 282 306 302 290 297 297 288 284 295 336 332 333 331 329 332 332 325 320 319 321 322 324 325 324
71 150 15 12 23 163 71 84 137 62 87 135 69 75 32 44 93 51 212 258 314 209 172 84 209 350 58 137 289 337 17 19 11 25 51 152 102 64 46 3 337 333 2 15 360 330 351 34 335 329 331 344 11 302 300 259 287 323 17 113 144 173 252 250 263 282 273 285 303 303 289 289 308 321 325 327 329 329 329 328 323 319 320 323 324 324 323 322
63 126 341 18 37 64 79 74 125 120 132 128 88 63 11 96 72 353 235 112 42 223 354 68 59 8 78 158 136 44 359 357 19 59 55 89 89 84 61 9 350 9 19 348 313 305 327 41 4 358 345 331 322 309 312 318 315 314 307 237 169 174 212 277 290 287 283 297 304 291 285 299 309 316 321 327 331 330 327 326 323 320 321 322 323 323 323 322
62 58 315 3 32 54 72 10 58 108 140 133 98 24 325 99 97 258 217 124 165 211 359 49 137 296 124 88 50 73 9 15 46 90 84 233 104 96 44 351 336 333 339 327 298 297 349 120 34 4 281 280 290 288 298 313 307 294 297 307 305 175 199 284 291 286 295 302 297 285 294 304 309 315 322 329 334 330 326 326 324 323 323 321 321 322 322 322
102 74 30 334 27 44 62 39 26 70 140 165 113 98 9 33 4 203 190 218 184 199 285 81 61 20 17 9 15 320 341 22 77 83 55 286 306 33 314 287 308 320 325 322 307 356 307 212 42 345 260 260 275 282 290 298 289 288 301 308 308 268 189 247 261 281 300 305 295 301 310 309 309 316 323 331 335 329 326 326 323 322 321 319 319 320 321 321
59 121 270 311 48 36 41 38 28 57 67 65 105 113 65 27 25 74 210 210 167 210 228 112 52 38 13 333 4 350 341 7 139 154 150 258 309 346 170 178 335 332 333 2 10 9 297 256 47 315 273 278 281 281 287 288 278 286 300 303 305 296 217 257 267 285 304 302 292 304 311 310 310 316 323 330 332 326 324 324 322 320 319 318 320 322 321 321
60 109 19 347 73 116 14 357 25 69 59 57 81 82 64 83 82 212 235 229 155 193 303 29 23 29 44 253 359 12 341 333 265 244 169 161 307 333 144 155 108 345 19 36 21 33 233 323 46 300 289 293 285 271 279 293 293 298 303 304 316 316 290 292 295 299 300 290 291 302 307 306 311 319 323 326 327 324 322 323 322 320 318 319 321 322 322 322
175 146 137 61 85 94 19 340 257 90 58 41 64 78 106 149 147 198 205 230 337 34 24 17 19 35 72 172 82 68 278 269 278 270 182 147 124 171 100 99 357 14 42 42 10 340 338 360 53 12 293 290 290 291 300 308 306 301 309 6 332 324 322 320 307 302 301 298 302 307 305 304 315 324 322 323 324 324 324 325 325 322 320 320 321 320 322 324
103 126 140 115 80 3 353 30 337 71 57 15 58 142 192 195 181 190 199 232 315 356 352 10 90 92 84 110 120 19 296 284 295 321 130 107 46 51 57 29 319 328 38 40 344 343 357 360 41 355 308 300 328 326 318 320 320 201 9 10 348 340 336 327 314 310 310 310 310 311 310 314 325 327 323 323 325 326 327 326 325 322 320 319 319 320 323 325
102 105 121 103 83 343 347 32 327 70 75 6 57 170 234 199 169 200 173 154 241 359 4 7 163 152 119 127 128 343 340 2 60 57 66 84 76 70 69 66 56 42 93 105 11 359 17 352 339 354 317 308 333 330 313 310 341 125 69 28 6 348 332 321 320 319 315 312 311 313 316 321 325 326 324 324 325 325 326 324 321 318 317 315 316 320 323 323